Location: Rounton
(54.4000°N, 1.3500°W)
Time: 09:00:39
(UTC+00:00)

Tiros 1 despin weight - Pass Details

Date: 05 December 2021
Orbit: 592 x 641 km, 48.2° (Epoch: 19 January)

Event Time Altitude Azimuth Distance (km) Brightness Sun altitude
Rises 12:16:18 0° 198° (SSW) 2,833 ? 13.0°
Reaches altitude 10° 12:19:49 10° 170° (S) 1,927 ? 13.0°
Maximum altitude 12:21:41 13° 144° (SE) 1,762 ? 13.0°
Drops below altitude 10° 12:23:34 10° 119° (ESE) 1,925 ? 12.9°
Sets 12:27:03 0° 90° (E) 2,827 ? 12.9°
